Location: Windsor
(43.2292°N, 89.3015°W)
Time: 17:49:49
(UTC+00:00)

AO-7 - Pass Details

Date: 30 June 2022
Orbit: 1440 x 1458 km, 101.9° (Epoch: 09 August)

Event Time Altitude Azimuth Distance (km) Brightness Sun altitude
Rises 08:36:03 0° 33° (NNE) 4,559 ? -14.6°
Reaches altitude 10° 08:40:40 10° 56° (ENE) 3,579 ? -14.1°
Maximum altitude 08:44:56 15° 88° (E) 3,215 ? -13.7°
Drops below altitude 10° 08:49:11 10° 119° (ESE) 3,574 ? -13.2°
Sets 08:53:44 0° 142° (SE) 4,549 ? -12.6°
